STARLINK-11464 [DTC]

Last updated on Fri Jan 31 2025 00:02:04 GMT+0000 (Coordinated Universal Time)

1 62473U 24254M 25029.91667824 -.00334584 00000+0 -19761-2 0 9994 2 62473 42.9942 138.1132 0001800 288.5201 62.0424 15.78077857 5882
UTC large
Height (km)
Speed (km/s)
/
Latitude / Longitude
Inclination (degrees)
Orbital Period (minutes)
Azimuth
Elevation
Range (km)
Doppler Factor

Next 0 passes for location: London (51.5072 / 0.1276)

Sorry there are no passes over London.